Regional Weather Roundup
Issued by NWS Green Bay, WI

Home | Current Version | Previous Version | Text Only | Print | Product List | Glossary On
Versions: 1 2 3 4 5 6 7 8 9 10 11 12 13 14 15 16 17 18 19 20 21 22 23 24 25 26 27 28 29 30 31 32 33 34 35 36 37 38 39 40 41 42 43 44 45 46 47 48 49 50
000
ASUS43 KGRB 210111
RWRGRB

NORTH-CENTRAL AND NORTHEAST WISCONSIN REGIONAL WEATHER ROUNDUP
NATIONAL WEATHER SERVICE GREEN BAY WI
700 PM CST MON NOV 20 2017

WIZ005-009-010>012-018-019-210200-
NORTH CENTRAL WISCONSIN

CITY           SKY/WX    TMP DP  RH WIND       PRES   REMARKS
IRONWOOD       CLOUDY    41  29  62 SW17G32   29.30F
MANITOWISH WTR CLOUDY    36  31  82 S8        29.36S
ARBOR VITAE    CLEAR     39  31  72 S9G17     29.37F
EAGLE RIVER    CLOUDY    36  27  72 S5        29.36F
LAND O LAKES   CLOUDY    37  29  75 S6        29.37F
RHINELANDER    CLOUDY    41  30  65 SW14      29.39F
PHILLIPS       CLEAR     40  30  69 SW9G16    29.38F
ANTIGO         CLOUDY    37  30  76 SW8       29.44S
TOMAHAWK       CLOUDY    38  29  70 CALM      29.41F
MERRILL        CLOUDY    41  30  64 SW8       29.43F
$$

WIZ013-073-210200-
NORTHEAST WISCONSIN

CITY           SKY/WX    TMP DP  RH WIND       PRES   REMARKS
IRON MOUNTAIN  PTCLDY    37  28  70 S8        29.39F
MARINETTE      CLOUDY    43  34  70 SW14G21   29.46F
OCONTO         PTCLDY    44  32  62 S8        29.47F
$$

WIZ017-030-035>037-045-210200-
CENTRAL WISCONSIN

CITY           SKY/WX    TMP DP  RH WIND       PRES   REMARKS
MEDFORD        PTCLDY    39  30  69 S12       29.42F
WAUSAU         CLOUDY    44  30  57 SW13      29.43F
MOSINEE        CLOUDY    43  30  61 SW13      29.47F
MARSHFIELD     CLOUDY    43  30  60 SW12      29.44F
WISC RAPIDS    CLOUDY    47  32  56 SW15G22   29.48F
STEVENS POINT  CLOUDY    44  30  57 SW14      29.46F
WAUPACA        MOCLDY    46  32  59 S9        29.49F
SHAWANO        PTCLDY    45  32  61 S5        29.46F
CLINTONVILLE   CLOUDY    43  30  61 S10       29.46F
WAUTOMA        PTCLDY    45  31  58 S8        29.51F
$$

WIZ038-039-048-051-210200-
FOX VALLEY

CITY           SKY/WX    TMP DP  RH WIND       PRES   REMARKS
NWS GREEN BAY  PTCLDY    45  35  68 S13       29.50F
APPLETON       MOCLDY    45  30  57 SW16      29.50F
OSHKOSH        CLOUDY    46  33  60 S16G23    29.53F
FOND DU LAC    CLOUDY    48  32  53 S18G33    29.55F
$$

WIZ022-050-052-210200-
EAST CENTRAL WISCONSIN

CITY           SKY/WX    TMP DP  RH WIND       PRES   REMARKS
EPHRAIM        FAIR      42  34  73 S8        29.48F
WASHINGTON ISL FAIR      43  37  77 S16G23    29.47F
STURGEON BAY   PTCLDY    43  33  68 S13       29.50F
MANITOWOC      NOT AVBL
SHEBOYGAN      CLOUDY    48  34  58 SW18G30   29.56F
$$

LMZ563-521-522-541>543-210200-
LAKESHORE

STATION/POSITION TIME  TEMP    WIND        PRES    VSBY  WAVE
                       AIR SEA DIR/SP/G                  HT/PER
                 (UTC) (F)     (DEG/KT/KT) (MB)    (MI)  (FT/S)
SHEBOYGAN LKSHOR 0100   50     210/ 23/ 27 1001.0F
KEWAUNEE LKSHORE 0048   42     190/ 10/ 12  999.3F
NORTHPORT PIER   0040   45     170/  8/ 19  998.6F
N MID LAKE BUOY  2350   47 48  190/ 29/ 35 1000.0         10/ 7
SISTER BAY LKSHO 0104   44     180/ 15/ 18   N/A
MENOMINEE LKSHOR 0048   43     180/ 11/ 14  998.0F
$$



USA.gov is the U.S. government's official web portal to all federal, state and local government web resources and services.